Weather History for Worland, WY

Change the Weather History Date:

Thursday, November 29, 2012

  Actual Average Record
Temperature  
Mean Temperature 39 °F 23 °F  
Max Temperature 54 °F 36 °F 60 °F (1970)
Min Temperature 24 °F 10 °F -17 °F (1975)
Degree Days  
Heating Degree Days 26 42  
Month to date heating degree days 664 988  
Since 1 July heating degree days 1370 1850  
Cooling Degree Days 0 0  
Month to date cooling degree days 0 0  
Year to date cooling degree days 901 535  
Moisture  
Dew Point 27 °F    
Average Humidity 64    
Maximum Humidity 92    
Minimum Humidity 35    
Precipitation  
Precipitation 0.00 in 0.01 in 0.15 in (1986)
Month to date precipitation 0.60 0.34  
Year to date precipitation 2.65 7.33  
Sea Level Pressure  
Sea Level Pressure 29.99 in    
Wind  
Wind Speed 4 mph (SSE)    
Max Wind Speed 13 mph    
Max Gust Speed 14 mph    
Visibility 10 miles    
Events      
T = Trace of Precipitation, MM = Missing Value Source: NWS Daily Summary

Daily Weather History Graph

Daily Weather History Graph

Search for Another Location

Airport:

Trip Planner

Search our weather history database for the weather conditions in past years. The results will help you decide how hot, cold, wet, or windy it might be!

Date:

Astronomy

Nov. 29, 2012 Rise Set
Actual Time 7:24 AM MST 4:35 PM MST
Civil Twilight 6:52 AM MST 5:07 PM MST
Nautical Twilight 6:16 AM MST 5:43 PM MST
Astronomical Twilight 5:41 AM MST 6:18 PM MST
Moon 5:40 PM MST (11/29) 8:14 AM MST (11/29)
Length of Visible Light 10h 15m
Length of Day
9h 10m
Full, 99% of the Moon is Illuminated
Nov 29
Full
Dec 6
Last Quarter
Dec 13
New
Dec 19
First Quarter
Dec 28
Full

Hourly Weather History & Observations

Time (MST) Temp. Windchill Dew Point Humidity Pressure Visibility Wind Dir Wind Speed Gust Speed Precip Events Conditions
12:53 AM 30.0 °F 25.2 °F 26.1 °F 85% 29.96 in 10.0 mi SSW 4.6 mph - N/A   Clear
1:53 AM 28.9 °F - 26.1 °F 89% 29.95 in 10.0 mi Calm Calm - N/A   Clear
2:53 AM 30.9 °F 26.2 °F 27.0 °F 85% 29.94 in 10.0 mi South 4.6 mph - N/A   Mostly Cloudy
3:53 AM 30.0 °F - 27.0 °F 88% 29.96 in 10.0 mi Calm Calm - N/A   Clear
4:53 AM 30.0 °F - 28.0 °F 92% 29.97 in 10.0 mi Calm Calm - N/A   Partly Cloudy
5:53 AM 27.0 °F 18.7 °F 24.1 °F 89% 29.98 in 10.0 mi SSW 8.1 mph - N/A   Clear
6:53 AM 28.0 °F 20.0 °F 24.1 °F 85% 29.99 in 10.0 mi SSW 8.1 mph - N/A   Clear
7:53 AM 27.0 °F 20.5 °F 24.1 °F 89% 30.02 in 10.0 mi South 5.8 mph - N/A   Partly Cloudy
8:53 AM 33.1 °F - 27.0 °F 78% 30.02 in 10.0 mi Calm Calm - N/A   Clear
9:53 AM 36.0 °F - 28.9 °F 76% 30.01 in 10.0 mi Calm Calm - N/A   Clear
10:53 AM 43.0 °F - 26.1 °F 51% 30.01 in 10.0 mi Calm Calm - N/A   Clear
11:53 AM 48.9 °F - 26.1 °F 41% 29.99 in 10.0 mi NE 3.5 mph - N/A   Clear
12:53 PM 53.1 °F - 27.0 °F 37% 29.97 in 10.0 mi East 6.9 mph - N/A   Clear
1:53 PM 54.0 °F - 27.0 °F 35% 29.95 in 10.0 mi East 9.2 mph - N/A   Clear
2:53 PM 53.1 °F - 28.9 °F 40% 29.96 in 10.0 mi Calm Calm - N/A   Clear
3:53 PM 44.1 °F 40.1 °F 30.9 °F 60% 29.99 in 10.0 mi ESE 6.9 mph - N/A   Clear
4:53 PM 41.0 °F 35.2 °F 28.0 °F 60% 30.00 in 10.0 mi SE 9.2 mph - N/A   Clear
5:53 PM 41.0 °F 34.7 °F 28.9 °F 62% 30.02 in 10.0 mi SSE 10.4 mph - N/A   Clear
6:53 PM 35.1 °F - 28.0 °F 76% 30.03 in 10.0 mi Calm Calm - N/A   Clear
7:53 PM 32.0 °F 28.7 °F 27.0 °F 82% 30.04 in 10.0 mi ENE 3.5 mph - N/A   Clear
8:53 PM 32.0 °F - 27.0 °F 82% 30.02 in 10.0 mi Calm Calm - N/A   Clear
9:53 PM 30.9 °F 25.2 °F 27.0 °F 85% 30.03 in 10.0 mi SSW 5.8 mph - N/A   Clear
10:53 PM 30.9 °F 24.3 °F 27.0 °F 85% 30.01 in 10.0 mi South 6.9 mph - N/A   Clear
11:53 PM 30.9 °F 27.5 °F 27.0 °F 85% 29.97 in 10.0 mi South 3.5 mph - N/A   Clear